Paynesville, MN

6:04 PM CDT on July 26, 2016 (GMT -0500)
Paynesville

Weather History for KPEX - June, 2012

Change the Weather History Date:

Wednesday, June 20, 2012

  Actual Average (KLJF) Record (KLJF)
Temperature  
Mean Temperature 70 °F -  
Max Temperature 79 °F 79 °F 100 °F (1988)
Min Temperature 61 °F 56 °F 38 °F (1969)
Cooling Degree Days 6    
Growing Degree Days 20 (Base 50)    
Moisture  
Dew Point 63 °F    
Average Humidity 86    
Maximum Humidity 96    
Minimum Humidity 68    
Precipitation  
Precipitation 0.28 in - - ()
Sea Level Pressure  
Sea Level Pressure 29.75 in    
Wind  
Wind Speed 7 mph (WNW)    
Max Wind Speed 24 mph    
Max Gust Speed 32 mph    
Visibility 9 miles    
Events Rain , Thunderstorm    
Averages and records for this station are not official NWS values.
T = Trace of Precipitation, MM = Missing Value Source: NWS Daily Summary

Daily Weather History Graph

Daily Weather History Graph

Search for Another Location

Airport or City:

Trip Planner

Search our weather history database for the weather conditions in past years. The results will help you decide how hot, cold, wet, or windy it might be!

Date:

Astronomy

Jun. 20, 2012 Rise Set
Actual Time 5:30 AM CDT 9:10 PM CDT
Civil Twilight 4:52 AM CDT 9:48 PM CDT
Nautical Twilight 4:02 AM CDT 10:39 PM CDT
Astronomical Twilight 2:53 AM CDT 11:47 PM CDT
Moon 6:34 AM CDT (6/20) 9:52 PM CDT (6/20)
Length of Visible Light 16h 55m
Length of Day
15h 40m
New Moon, 1% of the Moon is Illuminated
Jun 20
New Moon
Jun 26
First Quarter
Jul 3
Full
Jul 10
Last Quarter
Jul 18
New

Hourly Weather History & Observations

Time (CDT) Temp. Heat Index Dew Point Humidity Pressure Visibility Wind Dir Wind Speed Gust Speed Precip Events Conditions
12:14 AM 80.2 °F 83.1 °F 68.7 °F 68% 29.61 in 7.0 mi South 10.4 mph 21.9 mph N/A   Scattered Clouds
12:34 AM 79.9 °F - 68.5 °F 68% 29.60 in 10.0 mi SSW 16.1 mph 21.9 mph N/A   Clear
12:53 AM 79.5 °F - 68.5 °F 69% 29.60 in 7.0 mi SSW 16.1 mph 21.9 mph N/A   Clear
1:13 AM 79.2 °F - 68.5 °F 70% 29.61 in 10.0 mi SSW 9.2 mph 18.4 mph N/A   Clear
1:33 AM 77.5 °F - 70.2 °F 78% 29.62 in 10.0 mi West 11.5 mph - N/A   Scattered Clouds
1:53 AM 73.9 °F - 71.1 °F 91% 29.63 in 10.0 mi WSW 6.9 mph - N/A   Overcast
2:13 AM 73.4 °F - 70.7 °F 91% 29.63 in 10.0 mi Calm Calm - N/A   Overcast
2:34 AM 72.9 °F - 70.7 °F 93% 29.63 in 10.0 mi Calm Calm - N/A   Overcast
2:53 AM 72.5 °F - 70.7 °F 94% 29.64 in 7.0 mi Calm Calm - N/A   Overcast
3:14 AM 70.0 °F - 67.6 °F 92% 29.64 in 10.0 mi Calm Calm - N/A   Mostly Cloudy
3:33 AM 68.2 °F - 66.4 °F 94% 29.64 in 10.0 mi Calm Calm - N/A Thunderstorm Mostly Cloudy
3:53 AM 67.8 °F - 66.0 °F 94% 29.64 in 10.0 mi NE 4.6 mph - N/A   Overcast
4:14 AM 67.3 °F - 65.7 °F 95% 29.64 in 10.0 mi NE 3.5 mph - N/A   Overcast
4:34 AM 67.8 °F - 66.0 °F 94% 29.62 in 10.0 mi Calm Calm - N/A Rain , Thunderstorm Light Thunderstorms and Rain
4:53 AM 68.0 °F - 66.2 °F 94% 29.63 in 10.0 mi Calm Calm - N/A Thunderstorm Overcast
5:14 AM 67.3 °F - 65.3 °F 93% 29.67 in 4.0 mi WNW 10.4 mph - 0.03 in Rain Light Rain
5:33 AM 66.4 °F - 64.4 °F 93% 29.66 in 10.0 mi Calm Calm - 0.03 in Rain Light Rain
5:54 AM 66.4 °F - 64.4 °F 93% 29.65 in 10.0 mi ENE 4.6 mph - 0.03 in   Overcast
6:13 AM 66.6 °F - 64.6 °F 93% 29.65 in 10.0 mi Calm Calm - N/A   Overcast
6:33 AM 67.1 °F - 64.9 °F 93% 29.64 in 10.0 mi Calm Calm - N/A   Overcast
6:54 AM 67.3 °F - 65.5 °F 94% 29.67 in 10.0 mi Calm Calm - N/A   Overcast
7:13 AM 67.5 °F - 65.8 °F 95% 29.69 in 10.0 mi West 8.1 mph - N/A   Overcast
7:33 AM 65.7 °F - 63.5 °F 93% 29.70 in 10.0 mi WNW 11.5 mph 18.4 mph N/A Rain Light Rain
7:53 AM 64.8 °F - 63.1 °F 94% 29.71 in 10.0 mi NW 8.1 mph 19.6 mph N/A Rain , Thunderstorm Light Thunderstorms and Rain
8:13 AM 64.4 °F - 62.8 °F 94% 29.74 in 10.0 mi WNW 11.5 mph 23.0 mph N/A Thunderstorm Overcast
8:33 AM 63.9 °F - 62.6 °F 96% 29.74 in 5.0 mi WNW 16.1 mph 19.6 mph 0.16 in Rain , Thunderstorm Light Thunderstorms and Rain
8:53 AM 63.9 °F - 62.2 °F 94% 29.84 in 10.0 mi West 23.0 mph 29.9 mph 0.16 in Rain , Thunderstorm Light Thunderstorms and Rain
9:14 AM 62.6 °F - 60.6 °F 93% 29.60 in 4.0 mi NNE 24.2 mph 32.2 mph 0.08 in Rain , Thunderstorm Light Thunderstorms and Rain
9:34 AM 63.0 °F - 60.8 °F 93% 29.74 in 10.0 mi NW 13.8 mph 25.3 mph 0.09 in Rain , Thunderstorm Rain
9:53 AM 63.0 °F - 60.8 °F 93% 29.72 in 10.0 mi NNW 12.7 mph 18.4 mph 0.09 in Rain Heavy Rain
10:13 AM 63.5 °F - 61.2 °F 92% 29.72 in 10.0 mi NNW 9.2 mph 17.3 mph N/A Rain Rain
10:33 AM 65.7 °F - 61.7 °F 87% 29.73 in 10.0 mi North 9.2 mph 16.1 mph N/A Rain Rain
10:54 AM 65.7 °F - 60.8 °F 84% 29.74 in 10.0 mi North 8.1 mph - N/A Rain Rain
11:13 AM 67.5 °F - 61.0 °F 80% 29.75 in 10.0 mi North 4.6 mph - N/A Rain Rain
11:33 AM 69.3 °F - 61.0 °F 75% 29.74 in 10.0 mi ENE 5.8 mph - N/A Rain Rain
11:54 AM 70.7 °F - 61.9 °F 74% 29.74 in 10.0 mi East 9.2 mph - N/A Rain Rain
12:13 PM 71.4 °F - 61.5 °F 71% 29.74 in 10.0 mi East 6.9 mph - N/A Rain Heavy Rain
12:33 PM 71.2 °F - 61.0 °F 70% 29.77 in 10.0 mi SE 5.8 mph - N/A Rain Rain
12:54 PM 71.8 °F - 61.3 °F 70% 29.78 in 10.0 mi Calm Calm - N/A Rain Rain
1:13 PM 72.0 °F - 62.8 °F 73% 29.81 in 10.0 mi West 6.9 mph - N/A Rain Heavy Rain
1:34 PM 72.5 °F - 63.0 °F 72% 29.81 in 7.0 mi WNW 10.4 mph 16.1 mph N/A Rain Heavy Rain
1:54 PM 71.8 °F - 62.2 °F 72% 29.80 in 10.0 mi WNW 13.8 mph 18.4 mph N/A Rain Heavy Rain
2:13 PM 71.8 °F - 62.4 °F 72% 29.81 in 10.0 mi WNW 13.8 mph 17.3 mph N/A Rain Heavy Rain
2:34 PM 70.0 °F - 62.8 °F 78% 29.81 in 10.0 mi West 10.4 mph 20.7 mph N/A Rain Heavy Rain
2:53 PM 68.7 °F - 62.2 °F 80% 29.82 in 10.0 mi WNW 13.8 mph 20.7 mph N/A Rain Heavy Rain
3:13 PM 67.5 °F - 61.9 °F 82% 29.82 in 10.0 mi WNW 11.5 mph - N/A Rain Heavy Rain
3:34 PM 68.2 °F - 61.9 °F 80% 29.82 in 7.0 mi WNW 10.4 mph - N/A Rain Heavy Rain
3:54 PM 67.3 °F - 61.0 °F 80% 29.84 in 10.0 mi West 10.4 mph - N/A Rain Heavy Rain
4:13 PM 66.7 °F - 60.3 °F 80% 29.83 in 10.0 mi WNW 8.1 mph 17.3 mph N/A Rain Heavy Rain
4:33 PM 68.0 °F - 60.3 °F 76% 29.83 in 7.0 mi West 9.2 mph 18.4 mph N/A Rain Heavy Rain
4:53 PM 66.4 °F - 59.4 °F 78% 29.82 in 7.0 mi NW 8.1 mph - N/A Rain Heavy Rain
5:14 PM 66.4 °F - 59.7 °F 79% 29.81 in 10.0 mi WNW 10.4 mph - N/A Rain Heavy Rain
5:33 PM 65.5 °F - 58.8 °F 79% 29.82 in 7.0 mi WNW 4.6 mph - N/A Rain Heavy Rain
5:53 PM 64.6 °F - 57.0 °F 76% 29.82 in 10.0 mi NW 4.6 mph - N/A Rain Heavy Rain
6:14 PM 63.9 °F - 58.1 °F 81% 29.83 in 10.0 mi Calm Calm - N/A Rain Rain
6:33 PM 63.9 °F - 58.8 °F 84% 29.83 in 10.0 mi Calm Calm - N/A Rain Rain
6:53 PM 63.7 °F - 58.8 °F 84% 29.81 in 5.0 mi Calm Calm - N/A Rain Heavy Rain
7:13 PM 63.9 °F - 59.2 °F 85% 29.83 in 5.0 mi WSW 3.5 mph - N/A Rain Heavy Rain
7:34 PM 63.9 °F - 59.5 °F 86% 29.84 in 7.0 mi Calm Calm - N/A Rain Heavy Rain
7:53 PM 63.9 °F - 60.1 °F 87% 29.84 in 7.0 mi Calm Calm - N/A Rain Heavy Rain
8:13 PM 64.4 °F - 60.6 °F 88% 29.85 in 7.0 mi Calm Calm - N/A Rain Heavy Rain
8:34 PM 64.4 °F - 60.8 °F 88% 29.85 in 7.0 mi Calm Calm - N/A Rain Heavy Rain
8:54 PM 64.2 °F - 61.0 °F 89% 29.84 in 7.0 mi WSW 3.5 mph - N/A Rain Rain
9:14 PM 63.1 °F - 61.0 °F 93% 29.85 in 7.0 mi Calm Calm - N/A Rain Heavy Rain
9:33 PM 62.6 °F - 60.8 °F 94% 29.86 in 10.0 mi Calm Calm - N/A Rain Rain
9:53 PM 61.7 °F - 60.1 °F 94% 29.87 in 10.0 mi Calm Calm - N/A Rain Rain
10:13 PM 61.3 °F - 60.1 °F 96% 29.87 in 10.0 mi Calm Calm - N/A Rain Rain
10:33 PM 61.7 °F - 60.1 °F 94% 29.88 in 10.0 mi Calm Calm - N/A Rain Rain
10:53 PM 61.7 °F - 60.1 °F 94% 29.88 in 10.0 mi Calm Calm - N/A Rain Rain
11:13 PM 61.3 °F - 60.1 °F 96% 29.89 in 10.0 mi South 3.5 mph - N/A   Clear
11:33 PM 61.3 °F - 60.1 °F 96% 29.89 in 10.0 mi SSW 4.6 mph - N/A   Clear
11:53 PM 61.2 °F - 59.9 °F 96% 29.89 in 7.0 mi SW 4.6 mph - N/A   Clear